Location: Sternwarte_Laufen
(47.9344°N, 12.9346°E)
Time: 22:09:29
(UTC+01:00)

ISS - Visible Passes

Search period start: 14 December 2018 00:00
Search period end: 24 December 2018 00:00
Orbit: 401 x 408 km, 51.6° (Epoch: 15 December)

Date Brightness Start Highest point End Pass type
(mag) Time Alt. Az. Time Alt. Az. Time Alt. Az.
14 Dec -1.1 17:14:49 10° W 17:17:24 22° SW 17:19:57 10° SSE visible
16 Dec 0.0 17:08:28 10° WSW 17:09:12 11° SW 17:09:57 10° SSW visible
22 Dec -0.6 07:04:51 10° S 07:06:55 16° SE 07:08:59 10° E visible
